sat.trackr.live / text

‹ back to catalog

STARLINK-36415

NORAD 67519 · 2026-012AC

PAYLOAD ACTIVE UNKNOWN

§ Identity

Operator
Country
US
Launch date
2026-01-18
Launch site
AFETR
Launch vehicle
Mass (kg)
RCS (m²)

Purposes: comms

External: N2YO · Heavens-Above · Gunter

§ Orbital elements

Epoch: 2026-09-19T19:23:16.409184Z

Period
94.27 min
Inclination
43.0009°
Eccentricity
0.0001445
Mean motion
15.27583131 rev/d
Perigee alt
482.0 km
Apogee alt
484.0 km
Semi-major
6,861.2 km
B*
2.7510e-4
RAAN
297.7667°
Arg perigee
271.6987°
Mean anomaly
88.3699°
Rev number
3,745

§ Raw data

STARLINK-364151 67519U 26012AC  26262.80782881  .00007316  00000+0  27510-3 0  99932 67519  43.0009 297.7667 0001445 271.6987  88.3699 15.27583131 37452

JSON: /api/v1/satellites/67519 · /tle

For live sub-satellite position, see the globe view (requires WebGL).

§ Visibility from observer

Set your observer location to see the next 7 days of passes ≥ 10°. The values pass through the URL so the page stays shareable.

No JS? Fill the form by hand. The geolocation button needs JavaScript.